KB1RMA-4 Weather Reports


time (UTC)temp
C
wind
direction
speed
KPH
gust
KPH
rain 1hr
cm
rain 24hr
cm
rain mn
cm
humidity
%
barometer
mb
20260505041433 13 253 1.6 3.2 0.00 0.00 0.00 53 1010.3
20260505040931 13 275 0.0 0.0 0.00 0.00 0.00 52 1010.0
20260505040428 14 277 0.0 0.0 0.00 0.00 0.00 52 1010.1
20260505035925 14 266 0.0 1.6 0.00 0.00 0.00 51 1010.1
20260505035421 14 274 0.0 0.0 0.00 0.00 0.00 51 1010.2
20260505034918 14 240 0.0 0.0 0.00 0.00 0.00 51 1010.1
20260505034415 14 244 1.6 1.6 0.00 0.00 0.00 51 1010.0
20260505033912 14 274 0.0 0.0 0.00 0.00 0.00 50 1010.2
20260505033408 14 271 0.0 0.0 0.00 0.00 0.00 50 1010.1
20260505032907 15 269 0.0 0.0 0.00 0.00 0.00 49 1009.9
20260505032403 15 272 0.0 0.0 0.00 0.00 0.00 49 1009.9
20260505031900 15 232 4.8 8.0 0.00 0.00 0.00 49 1010.0
20260505031357 15 262 0.0 0.0 0.00 0.00 0.00 49 1010.0
20260505030854 15 276 0.0 0.0 0.00 0.00 0.00 49 1009.8
20260505030349 15 274 0.0 1.6 0.00 0.00 0.00 48 1009.9
20260505025845 15 265 0.0 0.0 0.00 0.00 0.00 48 1009.9
20260505025343 15 284 1.6 3.2 0.00 0.00 0.00 47 1010.1
20260505024842 15 276 0.0 0.0 0.00 0.00 0.00 47 1009.9
20260505024339 15 261 0.0 0.0 0.00 0.00 0.00 46 1010.1
20260505023836 15 282 0.0 0.0 0.00 0.00 0.00 47 1009.8
20260505023332 15 280 0.0 0.0 0.00 0.00 0.00 46 1010.0
20260505022830 15 264 0.0 1.6 0.00 0.00 0.00 46 1009.9
20260505022327 15 264 0.0 1.6 0.00 0.00 0.00 45 1010.0
20260505021824 15 232 3.2 4.8 0.00 0.00 0.00 45 1009.9
20260505021321 16 278 0.0 0.0 0.00 0.00 0.00 45 1009.9
20260505020816 16 278 0.0 0.0 0.00 0.00 0.00 45 1010.0
20260505020312 16 342 0.0 1.6 0.00 0.00 0.00 45 1010.1
20260505015809 16 215 3.2 4.8 0.00 0.00 0.00 44 1009.9
20260505015306 16 288 1.6 3.2 0.00 0.00 0.00 44 1009.7
20260505014804 16 224 1.6 3.2 0.00 0.00 0.00 44 1009.7
20260505014301 16 280 0.0 0.0 0.00 0.00 0.00 44 1009.8
20260505013757 16 275 0.0 0.0 0.00 0.00 0.00 44 1009.4
20260505013254 16 274 0.0 0.0 0.00 0.00 0.00 44 1009.7
20260505012753 16 280 0.0 0.0 0.00 0.00 0.00 43 1009.7
20260505012250 17 253 0.0 0.0 0.00 0.00 0.00 43 1009.5
20260505011745 17 266 1.6 1.6 0.00 0.00 0.00 42 1009.2
20260505011242 17 260 0.0 0.0 0.00 0.00 0.00 42 1009.3
20260505010738 17 257 1.6 1.6 0.00 0.00 0.00 41 1009.1
20260505010234 17 271 0.0 0.0 0.00 0.00 0.00 41 1008.9
20260505005731 17 266 0.0 0.0 0.00 0.00 0.00 41 1008.7
20260505005228 17 242 1.6 3.2 0.00 0.00 0.00 40 1008.6
20260505004725 17 210 3.2 4.8 0.00 0.00 0.00 40 1008.6
20260505004222 17 264 1.6 3.2 0.00 0.00 0.00 39 1008.4
20260505003719 18 177 3.2 8.0 0.00 0.00 0.00 39 1008.3
20260505003217 18 216 1.6 3.2 0.00 0.00 0.00 38 1008.2
20260505002713 18 268 0.0 1.6 0.00 0.00 0.00 38 1007.8
20260505002211 18 266 1.6 4.8 0.00 0.00 0.00 37 1007.9
20260505001708 18 225 1.6 3.2 0.00 0.00 0.00 37 1007.5
20260505001205 18 275 0.0 0.0 0.00 0.00 0.00 37 1007.4
20260505000702 18 261 0.0 0.0 0.00 0.00 0.00 36 1007.3
20260505000200 18 254 1.6 1.6 0.00 0.00 0.00 35 1007.3
20260504235656 18 276 0.0 0.0 0.00 0.00 0.00 35 1007.1
20260504235152 18 275 0.0 0.0 0.00 0.00 0.00 34 1007.1
20260504234650 19 280 0.0 0.0 0.00 0.00 0.00 33 1006.9
20260504234147 20 280 0.0 0.0 0.00 0.00 0.00 32 1006.9
20260504233643 20 276 0.0 0.0 0.00 0.00 0.00 31 1006.9
20260504233139 20 274 0.0 0.0 0.00 0.00 0.00 31 1006.6
20260504232637 20 278 0.0 0.0 0.00 0.00 0.00 30 1006.7
20260504232133 20 283 1.6 1.6 0.00 0.00 0.00 29 1006.7
20260504231630 21 278 0.0 0.0 0.00 0.00 0.00 29 1006.6
20260504231126 21 264 1.6 4.8 0.00 0.00 0.00 29 1006.4
20260504230622 21 284 0.0 0.0 0.00 0.00 0.00 28 1006.3
20260504230122 21 278 0.0 0.0 0.00 0.00 0.00 28 1006.3
20260504225619 21 272 0.0 0.0 0.00 0.00 0.00 28 1006.3
20260504225115 21 271 0.0 0.0 0.00 0.00 0.00 28 1006.4
20260504224612 21 275 0.0 0.0 0.00 0.00 0.00 28 1006.3
20260504224109 21 275 0.0 0.0 0.00 0.00 0.00 27 1006.3
20260504223606 21 264 0.0 1.6 0.00 0.00 0.00 27 1006.0
20260504223101 21 151 3.2 11.3 0.00 0.00 0.00 27 1006.2
20260504222559 22 319 0.0 3.2 0.00 0.00 0.00 26 1006.2
20260504222056 22 268 0.0 0.0 0.00 0.00 0.00 26 1006.2
20260504221553 22 275 0.0 0.0 0.00 0.00 0.00 27 1006.3
20260504221050 22 251 1.6 1.6 0.00 0.00 0.00 26 1006.4
20260504220546 22 241 0.0 0.0 0.00 0.00 0.00 26 1006.2
20260504220044 22 278 0.0 0.0 0.00 0.00 0.00 26 1006.1
20260504215540 22 285 0.0 0.0 0.00 0.00 0.00 26 1006.2
20260504215038 22 185 1.6 3.2 0.00 0.00 0.00 25 1006.3
20260504214533 22 268 0.0 1.6 0.00 0.00 0.00 25 1006.2
20260504214030 22 281 1.6 3.2 0.00 0.00 0.00 25 1006.0
20260504213526 22 275 0.0 0.0 0.00 0.00 0.00 26 1006.2
20260504213024 22 300 0.0 1.6 0.00 0.00 0.00 25 1006.0
20260504212519 23 264 3.2 4.8 0.00 0.00 0.00 24 1005.9
20260504212017 23 293 0.0 0.0 0.00 0.00 0.00 24 1006.1
20260504211514 22 211 4.8 8.0 0.00 0.00 0.00 24 1006.2
20260504211011 22 287 1.6 3.2 0.00 0.00 0.00 25 1006.1
20260504210508 22 260 3.2 3.2 0.00 0.00 0.00 25 1006.2
20260504210005 22 280 0.0 0.0 0.00 0.00 0.00 25 1006.3
20260504205502 22 200 1.6 3.2 0.00 0.00 0.00 24 1006.2
20260504205000 23 212 1.6 4.8 0.00 0.00 0.00 24 1006.2
20260504204458 23 278 3.2 3.2 0.00 0.00 0.00 23 1006.3
20260504203957 23 273 3.2 3.2 0.00 0.00 0.00 23 1006.4
20260504203455 22 265 0.0 0.0 0.00 0.00 0.00 23 1006.3
20260504202950 23 254 3.2 8.0 0.00 0.00 0.00 22 1006.2
20260504202447 23 284 1.6 1.6 0.00 0.00 0.00 23 1006.1
20260504201944 23 248 1.6 1.6 0.00 0.00 0.00 22 1006.1
20260504201441 23 275 0.0 0.0 0.00 0.00 0.00 22 1006.2
20260504200938 24 252 1.6 1.6 0.00 0.00 0.00 22 1006.1
20260504200435 23 275 3.2 3.2 0.00 0.00 0.00 22 1006.3
20260504195932 23 279 1.6 3.2 0.00 0.00 0.00 22 1006.2
20260504195427 24 264 3.2 8.0 0.00 0.00 0.00 21 1006.5
20260504194924 23 289 0.0 0.0 0.00 0.00 0.00 22 1006.4
20260504194420 24 284 0.0 0.0 0.00 0.00 0.00 23 1006.4
20260504193916 24 276 0.0 1.6 0.00 0.00 0.00 22 1006.3
20260504193414 23 274 1.6 3.2 0.00 0.00 0.00 21 1006.1
20260504192913 23 272 0.0 1.6 0.00 0.00 0.00 22 1006.2
20260504192409 24 277 1.6 3.2 0.00 0.00 0.00 22 1006.4
20260504191908 23 290 1.6 3.2 0.00 0.00 0.00 23 1006.4
20260504191406 23 279 3.2 3.2 0.00 0.00 0.00 23 1006.4
20260504190901 23 214 3.2 3.2 0.00 0.00 0.00 22 1006.5
20260504190357 23 249 3.2 8.0 0.00 0.00 0.00 22 1006.4
20260504185854 24 318 0.0 1.6 0.00 0.00 0.00 22 1006.4
20260504185351 23 270 6.4 11.3 0.00 0.00 0.00 22 1006.7
20260504184846 23 231 1.6 3.2 0.00 0.00 0.00 23 1006.6
20260504184343 23 283 1.6 3.2 0.00 0.00 0.00 23 1006.6
20260504183839 23 251 3.2 3.2 0.00 0.00 0.00 22 1006.7
20260504183336 23 271 0.0 0.0 0.00 0.00 0.00 23 1006.6
20260504182834 23 323 3.2 3.2 0.00 0.00 0.00 23 1006.6
20260504182331 23 222 3.2 11.3 0.00 0.00 0.00 23 1006.8
20260504181828 23 289 1.6 3.2 0.00 0.00 0.00 23 1006.6
20260504181325 23 299 0.0 1.6 0.00 0.00 0.00 24 1006.8
20260504180824 22 240 4.8 8.0 0.00 0.00 0.00 23 1006.7
20260504180322 22 213 1.6 3.2 0.00 0.00 0.00 23 1006.8
20260504175820 22 172 3.2 12.9 0.00 0.00 0.00 24 1006.9
20260504175316 22 279 0.0 1.6 0.00 0.00 0.00 24 1006.7
20260504174815 22 169 4.8 4.8 0.00 0.00 0.00 24 1007.1
20260504174312 22 261 1.6 1.6 0.00 0.00 0.00 24 1006.9
20260504173808 22 269 1.6 1.6 0.00 0.00 0.00 25 1007.2
20260504173305 22 263 1.6 3.2 0.00 0.00 0.00 25 1007.3
20260504172802 22 271 1.6 1.6 0.00 0.00 0.00 25 1007.0
20260504172259 22 204 4.8 4.8 0.00 0.00 0.00 24 1007.1
20260504171754 22 265 3.2 3.2 0.00 0.00 0.00 25 1007.0
20260504171252 22 267 4.8 12.9 0.00 0.00 0.00 25 1007.2
20260504170749 22 254 4.8 9.7 0.00 0.00 0.00 26 1007.3
20260504170246 22 291 1.6 3.2 0.00 0.00 0.00 25 1007.0
20260504160204 21 177 4.8 12.9 0.00 0.00 0.00 26 1007.6
20260504151132 19 283 0.0 1.6 0.00 0.00 0.00 31 1008.6
20260504150630 20 338 3.2 4.8 0.00 0.00 0.00 31 1008.7
20260504150126 19 256 3.2 8.0 0.00 0.00 0.00 31 1008.6
20260504141055 17 260 0.0 3.2 0.00 0.00 0.00 34 1009.0
20260504140552 17 241 4.8 9.7 0.00 0.00 0.00 34 1009.3
20260504130516 14 271 0.0 0.0 0.00 0.00 0.00 40 1009.9
20260504110403 7 273 0.0 0.0 0.00 0.00 0.00 57 1011.0
20260504100320 6 271 0.0 0.0 0.00 0.00 0.00 61 1010.7
20260504081714 7 270 0.0 0.0 0.00 0.00 0.00 53 1010.7
20260504081210 7 270 0.0 0.0 0.00 0.00 0.00 53 1010.6
20260504080707 7 270 0.0 0.0 0.00 0.00 0.00 52 1010.8
20260504080203 7 270 0.0 0.0 0.00 0.00 0.00 52 1010.8
20260504070131 6 271 0.0 0.0 0.00 0.00 0.00 57 1010.5
20260504050520 3 271 0.0 0.0 0.00 0.00 0.00 62 1010.8
20260504050017 3 271 0.0 0.0 0.00 0.00 0.00 63 1010.4
20260504045513 3 271 0.0 0.0 0.00 0.00 0.00 63 1010.5
20260504045009 3 271 0.0 0.0 0.00 0.00 0.00 62 1010.7
20260504044507 3 271 0.0 0.0 0.00 0.00 0.00 62 1010.6
20260504044003 3 271 0.0 0.0 0.00 0.00 0.00 61 1010.4
20260504043500 4 271 0.0 0.0 0.00 0.00 0.00 61 1010.7
20260504042958 4 271 0.0 0.0 0.00 0.00 0.00 61 1010.7
20260504042454 4 271 0.0 0.0 0.00 0.00 0.00 60 1010.3
20260504041951 4 271 0.0 0.0 0.00 0.00 0.00 60 1010.4